| time (UTC) | temp C | wind direction | speed KPH | gust KPH | rain 1hr cm | rain 24hr cm | rain mn cm | humidity % | barometer mb |
| 20260510131021 | 8 | 338 | 3.2 | 6.4 | 0.00 | 0.46 | 0.00 | 66 | 679.4 |
| 20260510130041 | 8 | 324 | 6.4 | 8.0 | 0.00 | 0.46 | 0.00 | 66 | 679.4 |
| 20260510125022 | 8 | 327 | 4.8 | 11.3 | 0.00 | 0.46 | 0.00 | 68 | 679.4 |
| 20260510124021 | 7 | 328 | 6.4 | 12.9 | 0.00 | 0.46 | 0.00 | 68 | 679.4 |
| 20260510123022 | 7 | 339 | 4.8 | 9.7 | 0.00 | 0.46 | 0.00 | 69 | 679.4 |
| 20260510122022 | 7 | 322 | 4.8 | 11.3 | 0.00 | 0.46 | 0.00 | 72 | 679.3 |
| 20260510121021 | 6 | 330 | 6.4 | 16.1 | 0.00 | 0.46 | 0.00 | 76 | 679.3 |
| 20260510120022 | 5 | 330 | 4.8 | 6.4 | 0.00 | 0.46 | 0.00 | 77 | 679.3 |
| 20260510115022 | 5 | 334 | 3.2 | 6.4 | 0.00 | 0.46 | 0.00 | 77 | 679.3 |
| 20260510114022 | 4 | 321 | 3.2 | 8.0 | 0.00 | 0.46 | 0.00 | 77 | 679.2 |
| 20260510113017 | 3 | 324 | 4.8 | 8.0 | 0.00 | 0.46 | 0.00 | 77 | 679.2 |
| 20260510112037 | 3 | 319 | 4.8 | 9.7 | 0.00 | 0.46 | 0.00 | 77 | 679.2 |
| 20260510111018 | 3 | 320 | 4.8 | 9.7 | 0.00 | 0.46 | 0.00 | 77 | 679.2 |
| 20260510110018 | 2 | 319 | 4.8 | 8.0 | 0.00 | 0.46 | 0.00 | 77 | 679.2 |
| 20260510105038 | 2 | 316 | 4.8 | 8.0 | 0.00 | 0.46 | 0.00 | 77 | 679.2 |
| 20260510104018 | 2 | 319 | 4.8 | 9.7 | 0.00 | 0.46 | 0.00 | 77 | 679.2 |
| 20260510103038 | 2 | 319 | 3.2 | 6.4 | 0.00 | 0.46 | 0.00 | 77 | 679.2 |
| 20260510102018 | 2 | 314 | 4.8 | 8.0 | 0.00 | 0.46 | 0.00 | 77 | 679.2 |
| 20260510101018 | 2 | 317 | 4.8 | 6.4 | 0.00 | 0.46 | 0.00 | 77 | 679.2 |
| 20260510100019 | 2 | 315 | 4.8 | 8.0 | 0.00 | 0.46 | 0.00 | 77 | 679.2 |
| 20260510095018 | 2 | 310 | 3.2 | 4.8 | 0.00 | 0.46 | 0.00 | 77 | 679.2 |
| 20260510094016 | 2 | 319 | 4.8 | 8.0 | 0.00 | 0.46 | 0.00 | 77 | 679.2 |
| 20260510093017 | 2 | 322 | 3.2 | 6.4 | 0.00 | 0.46 | 0.00 | 77 | 679.2 |
| 20260510092037 | 2 | 313 | 3.2 | 4.8 | 0.00 | 0.46 | 0.00 | 77 | 679.2 |
| 20260510091017 | 2 | 307 | 3.2 | 4.8 | 0.00 | 0.46 | 0.00 | 77 | 679.2 |
| 20260510090019 | 2 | 313 | 3.2 | 4.8 | 0.00 | 0.46 | 0.00 | 76 | 679.2 |
| 20260510085019 | 3 | 320 | 1.6 | 3.2 | 0.00 | 0.46 | 0.00 | 76 | 679.2 |
| 20260510084019 | 3 | 318 | 1.6 | 3.2 | 0.00 | 0.46 | 0.00 | 75 | 679.2 |
| 20260510083019 | 3 | 316 | 1.6 | 3.2 | 0.00 | 0.46 | 0.00 | 75 | 679.2 |
| 20260510082020 | 3 | 318 | 1.6 | 4.8 | 0.00 | 0.46 | 0.00 | 75 | 679.2 |
| 20260510081038 | 3 | 317 | 1.6 | 3.2 | 0.00 | 0.46 | 0.00 | 74 | 679.2 |
| 20260510080018 | 3 | 331 | 1.6 | 1.6 | 0.00 | 0.46 | 0.00 | 74 | 679.2 |
| 20260510075018 | 3 | 337 | 1.6 | 3.2 | 0.00 | 0.46 | 0.00 | 73 | 679.2 |
| 20260510074018 | 4 | 322 | 1.6 | 4.8 | 0.00 | 0.46 | 0.00 | 73 | 679.3 |
| 20260510073018 | 4 | 336 | 1.6 | 3.2 | 0.00 | 0.46 | 0.00 | 72 | 679.3 |
| 20260510072018 | 5 | 353 | 3.2 | 4.8 | 0.00 | 0.46 | 0.00 | 71 | 679.3 |
| 20260510071018 | 5 | 355 | 3.2 | 4.8 | 0.00 | 0.46 | 0.00 | 71 | 679.3 |
| 20260510070018 | 5 | 352 | 3.2 | 6.4 | 0.00 | 0.46 | 0.00 | 70 | 679.3 |
| 20260510065019 | 5 | 351 | 3.2 | 8.0 | 0.00 | 0.46 | 0.00 | 71 | 679.3 |
| 20260510064019 | 5 | 358 | 3.2 | 9.7 | 0.00 | 0.46 | 0.00 | 72 | 679.3 |
| 20260510063019 | 5 | 352 | 1.6 | 3.2 | 0.00 | 0.46 | 0.00 | 71 | 679.3 |
| 20260510062019 | 6 | 9 | 3.2 | 4.8 | 0.00 | 0.46 | 0.00 | 71 | 679.3 |
| 20260510061019 | 6 | 1 | 1.6 | 3.2 | 0.00 | 0.46 | 0.00 | 71 | 679.3 |
| 20260510060019 | 6 | 39 | 0.0 | 3.2 | 0.00 | 0.46 | 0.00 | 70 | 679.3 |
| 20260510055020 | 6 | 353 | 3.2 | 4.8 | 0.00 | 0.46 | 0.00 | 69 | 679.3 |
| 20260510054019 | 6 | 2 | 3.2 | 6.4 | 0.00 | 0.46 | 0.00 | 69 | 679.4 |
| 20260510053020 | 7 | 355 | 3.2 | 8.0 | 0.00 | 0.46 | 0.00 | 68 | 679.4 |
| 20260510052020 | 7 | 359 | 3.2 | 6.4 | 0.00 | 0.51 | 0.00 | 68 | 679.4 |
| 20260510051020 | 7 | 353 | 3.2 | 6.4 | 0.00 | 0.53 | 0.00 | 68 | 679.4 |
| 20260510050021 | 7 | 7 | 3.2 | 8.0 | 0.00 | 0.53 | 0.00 | 68 | 679.4 |
| 20260510045020 | 7 | 341 | 1.6 | 3.2 | 0.00 | 0.61 | 0.00 | 68 | 679.4 |
| 20260510044020 | 7 | 4 | 1.6 | 4.8 | 0.00 | 0.61 | 0.00 | 68 | 679.4 |
| 20260510043021 | 8 | 327 | 3.2 | 4.8 | 0.00 | 0.61 | 0.00 | 70 | 679.4 |
| 20260510042021 | 8 | 357 | 3.2 | 9.7 | 0.00 | 0.61 | 0.00 | 70 | 679.4 |
| 20260510041021 | 8 | 357 | 3.2 | 4.8 | 0.00 | 0.61 | 0.00 | 69 | 679.4 |
| 20260510040021 | 8 | 43 | 1.6 | 3.2 | 0.00 | 0.61 | 0.00 | 68 | 679.4 |
| 20260510035021 | 8 | 39 | 0.0 | 3.2 | 0.00 | 0.61 | 0.61 | 66 | 679.5 |
| 20260510034041 | 8 | 17 | 1.6 | 4.8 | 0.00 | 0.61 | 0.61 | 66 | 679.5 |
| 20260510033022 | 9 | 16 | 1.6 | 4.8 | 0.00 | 0.61 | 0.61 | 66 | 679.5 |
| 20260510032022 | 9 | 355 | 1.6 | 4.8 | 0.00 | 0.61 | 0.61 | 66 | 679.5 |
| 20260510031042 | 10 | 0 | 1.6 | 3.2 | 0.00 | 0.61 | 0.61 | 65 | 679.5 |
| 20260510030022 | 10 | 8 | 1.6 | 4.8 | 0.00 | 0.61 | 0.61 | 65 | 679.5 |
| 20260510025022 | 10 | 359 | 1.6 | 4.8 | 0.00 | 0.61 | 0.61 | 65 | 679.5 |
| 20260510024042 | 10 | 28 | 0.0 | 3.2 | 0.00 | 0.61 | 0.61 | 65 | 679.5 |
| 20260510023022 | 10 | 359 | 1.6 | 6.4 | 0.00 | 0.61 | 0.61 | 65 | 679.5 |
| 20260510022022 | 11 | 8 | 1.6 | 4.8 | 0.00 | 0.61 | 0.61 | 66 | 679.5 |
| 20260510021043 | 11 | 27 | 3.2 | 6.4 | 0.00 | 0.61 | 0.61 | 66 | 679.5 |
| 20260510020023 | 11 | 21 | 1.6 | 4.8 | 0.00 | 0.61 | 0.61 | 66 | 679.5 |
| 20260510015023 | 11 | 2 | 4.8 | 8.0 | 0.00 | 0.61 | 0.61 | 69 | 679.5 |
| 20260510014023 | 11 | 1 | 3.2 | 6.4 | 0.00 | 0.61 | 0.61 | 69 | 679.6 |
| 20260510013023 | 12 | 355 | 4.8 | 8.0 | 0.00 | 0.61 | 0.61 | 68 | 679.6 |
| 20260510012024 | 12 | 354 | 4.8 | 8.0 | 0.00 | 0.61 | 0.61 | 68 | 679.6 |
| 20260510011023 | 12 | 350 | 4.8 | 9.7 | 0.00 | 0.61 | 0.61 | 66 | 679.6 |
| 20260510010024 | 12 | 349 | 3.2 | 6.4 | 0.00 | 0.61 | 0.61 | 70 | 679.6 |
| 20260510005024 | 13 | 334 | 1.6 | 3.2 | 0.00 | 0.61 | 0.61 | 71 | 679.6 |
| 20260510004024 | 13 | 304 | 0.0 | 1.6 | 0.00 | 0.61 | 0.61 | 70 | 679.6 |
| 20260510003016 | 14 | 355 | 0.0 | 3.2 | 0.00 | 0.61 | 0.61 | 68 | 679.6 |
| 20260510002024 | 14 | 359 | 1.6 | 4.8 | 0.00 | 0.61 | 0.61 | 68 | 679.6 |
| 20260510001057 | 15 | 331 | 1.6 | 4.8 | 0.00 | 0.61 | 0.61 | 73 | 679.7 |
| 20260510000016 | 15 | 333 | 0.0 | 1.6 | 0.00 | 0.61 | 0.61 | 77 | 679.7 |
| 20260509235016 | 15 | 351 | 0.0 | 3.2 | 0.00 | 0.61 | 0.61 | 77 | 679.7 |
| 20260509234017 | 15 | 222 | 4.8 | 6.4 | 0.00 | 0.61 | 0.61 | 77 | 679.7 |
| 20260509233037 | 15 | 226 | 3.2 | 6.4 | 0.00 | 0.61 | 0.61 | 77 | 679.7 |
| 20260509232025 | 15 | 221 | 4.8 | 6.4 | 0.00 | 0.61 | 0.61 | 77 | 679.7 |
| 20260509231025 | 15 | 225 | 1.6 | 4.8 | 0.00 | 0.61 | 0.61 | 77 | 679.7 |
| 20260509230025 | 15 | 223 | 4.8 | 8.0 | 0.00 | 0.61 | 0.61 | 77 | 679.7 |
| 20260509225026 | 15 | 205 | 6.4 | 9.7 | 0.00 | 0.61 | 0.61 | 77 | 679.7 |
| 20260509224018 | 15 | 210 | 4.8 | 8.0 | 0.00 | 0.61 | 0.61 | 77 | 679.7 |
| 20260509223018 | 15 | 194 | 6.4 | 12.9 | 0.00 | 0.61 | 0.61 | 77 | 679.7 |
| 20260509222018 | 15 | 199 | 6.4 | 11.3 | 0.00 | 0.61 | 0.61 | 77 | 679.7 |
| 20260509221018 | 15 | 215 | 8.0 | 11.3 | 0.00 | 0.61 | 0.61 | 77 | 679.7 |
| 20260509220018 | 15 | 199 | 8.0 | 9.7 | 0.00 | 0.61 | 0.61 | 77 | 679.7 |
| 20260509215019 | 15 | 204 | 8.0 | 11.3 | 0.00 | 0.61 | 0.61 | 77 | 679.7 |
| 20260509214018 | 15 | 216 | 6.4 | 9.7 | 0.00 | 0.61 | 0.61 | 84 | 679.7 |
| 20260509213018 | 14 | 215 | 6.4 | 9.7 | 0.00 | 0.61 | 0.61 | 86 | 679.6 |
| 20260509212019 | 13 | 222 | 3.2 | 6.4 | 0.03 | 0.61 | 0.61 | 83 | 679.6 |
| 20260509211019 | 13 | 233 | 4.8 | 9.7 | 0.20 | 0.61 | 0.61 | 84 | 679.6 |
| 20260509210019 | 13 | 236 | 4.8 | 8.0 | 0.38 | 0.61 | 0.61 | 86 | 679.6 |
| 20260509205039 | 13 | 232 | 4.8 | 8.0 | 0.46 | 0.61 | 0.61 | 87 | 679.6 |
| 20260509204019 | 12 | 227 | 1.6 | 8.0 | 0.46 | 0.61 | 0.61 | 85 | 679.6 |
| 20260509203019 | 12 | 220 | 4.8 | 8.0 | 0.46 | 0.61 | 0.61 | 77 | 679.6 |
| 20260509202020 | 13 | 232 | 4.8 | 14.5 | 0.43 | 0.58 | 0.58 | 77 | 679.6 |
| 20260509201020 | 15 | 306 | 6.4 | 9.7 | 0.25 | 0.41 | 0.41 | 74 | 679.7 |
| 20260509200020 | 16 | 230 | 12.9 | 19.3 | 0.08 | 0.23 | 0.23 | 74 | 679.8 |
| 20260509195101 | 16 | 226 | 11.3 | 16.1 | 0.00 | 0.15 | 0.15 | 73 | 679.8 |
| 20260509194020 | 16 | 220 | 14.5 | 24.1 | 0.00 | 0.15 | 0.15 | 73 | 679.8 |
| 20260509193020 | 16 | 215 | 12.9 | 19.3 | 0.00 | 0.15 | 0.15 | 72 | 679.8 |
| 20260509192020 | 17 | 202 | 16.1 | 22.5 | 0.00 | 0.15 | 0.15 | 72 | 679.8 |
| 20260509191021 | 17 | 208 | 14.5 | 20.9 | 0.00 | 0.15 | 0.15 | 71 | 679.8 |
| 20260509190021 | 17 | 206 | 14.5 | 22.5 | 0.00 | 0.15 | 0.15 | 71 | 679.8 |
| 20260509185021 | 17 | 204 | 12.9 | 19.3 | 0.00 | 0.15 | 0.15 | 73 | 679.8 |
| 20260509184021 | 17 | 198 | 17.7 | 25.7 | 0.00 | 0.15 | 0.15 | 72 | 679.8 |
| 20260509183021 | 17 | 192 | 12.9 | 20.9 | 0.00 | 0.15 | 0.15 | 73 | 679.8 |
| 20260509182102 | 17 | 206 | 11.3 | 17.7 | 0.00 | 0.15 | 0.15 | 72 | 679.8 |
| 20260509181042 | 17 | 206 | 11.3 | 16.1 | 0.00 | 0.15 | 0.15 | 72 | 679.8 |
| 20260509180042 | 17 | 218 | 11.3 | 17.7 | 0.00 | 0.15 | 0.15 | 71 | 679.8 |
| 20260509175021 | 18 | 218 | 12.9 | 17.7 | 0.00 | 0.15 | 0.15 | 70 | 679.8 |
| 20260509174022 | 18 | 188 | 12.9 | 17.7 | 0.00 | 0.15 | 0.15 | 71 | 679.9 |
| 20260509173022 | 18 | 181 | 17.7 | 25.7 | 0.00 | 0.15 | 0.15 | 71 | 679.9 |
| 20260509172022 | 18 | 191 | 16.1 | 19.3 | 0.00 | 0.15 | 0.15 | 71 | 679.9 |
| 20260509171042 | 18 | 193 | 12.9 | 17.7 | 0.00 | 0.15 | 0.15 | 70 | 679.9 |
| 20260509170043 | 19 | 188 | 12.9 | 19.3 | 0.00 | 0.15 | 0.15 | 68 | 679.9 |
| 20260509165042 | 20 | 192 | 11.3 | 19.3 | 0.00 | 0.15 | 0.15 | 66 | 679.9 |
| 20260509164022 | 19 | 199 | 12.9 | 19.3 | 0.00 | 0.15 | 0.15 | 64 | 679.9 |
| 20260509163043 | 19 | 234 | 8.0 | 14.5 | 0.00 | 0.15 | 0.15 | 61 | 679.9 |
| 20260509162023 | 19 | 210 | 9.7 | 16.1 | 0.00 | 0.15 | 0.15 | 63 | 679.9 |
| 20260509161023 | 18 | 211 | 11.3 | 14.5 | 0.00 | 0.15 | 0.15 | 65 | 679.8 |
| 20260509160023 | 18 | 199 | 9.7 | 12.9 | 0.00 | 0.15 | 0.15 | 64 | 679.8 |
| 20260509155023 | 18 | 256 | 3.2 | 6.4 | 0.00 | 0.15 | 0.15 | 63 | 679.9 |
| 20260509154023 | 18 | 301 | 3.2 | 8.0 | 0.00 | 0.15 | 0.15 | 65 | 679.8 |
| 20260509153024 | 18 | 219 | 6.4 | 11.3 | 0.00 | 0.15 | 0.15 | 64 | 679.8 |
| 20260509152104 | 18 | 214 | 4.8 | 14.5 | 0.00 | 0.15 | 0.15 | 64 | 679.8 |
| 20260509151044 | 18 | 207 | 9.7 | 19.3 | 0.00 | 0.15 | 0.15 | 65 | 679.8 |
| 20260509150024 | 17 | 213 | 8.0 | 11.3 | 0.00 | 0.15 | 0.15 | 71 | 679.8 |
| 20260509145024 | 16 | 213 | 11.3 | 17.7 | 0.00 | 0.15 | 0.15 | 71 | 679.7 |
| 20260509144025 | 17 | 211 | 11.3 | 19.3 | 0.00 | 0.15 | 0.15 | 72 | 679.7 |
| 20260509143024 | 16 | 206 | 9.7 | 14.5 | 0.00 | 0.15 | 0.15 | 76 | 679.7 |
| 20260509142025 | 15 | 197 | 8.0 | 11.3 | 0.00 | 0.15 | 0.15 | 77 | 679.6 |
| 20260509141105 | 15 | 190 | 9.7 | 14.5 | 0.00 | 0.15 | 0.15 | 81 | 679.6 |
| 20260509140025 | 14 | 192 | 9.7 | 16.1 | 0.00 | 0.15 | 0.15 | 80 | 679.6 |
| 20260509135025 | 13 | 218 | 4.8 | 9.7 | 0.00 | 0.15 | 0.15 | 86 | 679.5 |
| 20260509134025 | 13 | 223 | 4.8 | 9.7 | 0.00 | 0.15 | 0.15 | 87 | 679.5 |
| 20260509133045 | 12 | 192 | 9.7 | 12.9 | 0.00 | 0.15 | 0.15 | 90 | 679.5 |
| 20260509132025 | 12 | 205 | 8.0 | 14.5 | 0.00 | 0.15 | 0.15 | 93 | 679.5 |